This demonstration page uses our WeatherBlox Daily Observations layout. Learn more.

Hourly Observations for November 13, 2015

Temp ( °F °C ) Dew Point ( °F °C ) Humidity (%) Winds ( mph kmh ) Pressure ( in mb ) Visibility ( mi km ) Precip ( " mm )
12:15 am 00:15 Cloudy 34 1 23 -5 65 65 WNW 3 6 30.33 1027 10 16.09344 0 0
12:35 am 00:35 Partly Cloudy 34 1 23 -5 65 65 W 5 7 30.33 1027 10 16.09344 0 0
12:55 am 00:55 Clear 32 0 23 -5 69 69 W 3 6 30.33 1027 10 16.09344 0 0
1:15 am 01:15 Clear 34 1 23 -5 65 65 W 5 7 30.33 1027 10 16.09344 0 0
1:35 am 01:35 Clear 34 1 23 -5 65 65 Calm 30.33 1027 10 16.09344 0 0
1:55 am 01:55 Clear 32 0 23 -5 69 69 W 3 6 30.33 1027 10 16.09344 0 0
2:15 am 02:15 Clear 30 -1 23 -5 75 75 Calm 30.33 1027 10 16.09344 0 0
2:35 am 02:35 Clear 30 -1 23 -5 75 75 W 5 7 30.33 1027 10 16.09344 0 0
2:55 am 02:55 Clear 34 1 23 -5 65 65 W 5 7 30.33 1027 10 16.09344 0 0
3:15 am 03:15 Clear 34 1 21 -6 60 60 W 6 9 30.33 1027 10 16.09344 0 0
3:35 am 03:35 Clear 32 0 21 -6 64 64 W 3 6 30.33 1027 10 16.09344 0 0
3:55 am 03:55 Clear 30 -1 21 -6 69 69 Calm 30.3 1026 10 16.09344 0 0
4:15 am 04:15 Clear 30 -1 21 -6 69 69 W 3 6 30.3 1026 10 16.09344 0 0
4:35 am 04:35 Clear 32 0 21 -6 64 64 Calm 30.33 1027 10 16.09344 0 0
4:55 am 04:55 Clear 32 0 21 -6 64 64 Calm 30.33 1027 10 16.09344 0 0
5:15 am 05:15 Clear 30 -1 21 -6 69 69 W 3 6 30.33 1027 10 16.09344 0 0
5:35 am 05:35 Clear 32 0 21 -6 64 64 Calm 30.33 1027 10 16.09344 0 0
5:55 am 05:55 Clear 28 -2 21 -6 74 74 Calm 30.36 1028 10 16.09344 0 0
6:15 am 06:15 Clear 28 -2 21 -6 74 74 Calm 30.36 1028 10 16.09344 0 0
6:35 am 06:35 Clear 28 -2 21 -6 74 74 Calm 30.36 1028 10 16.09344 0 0
6:55 am 06:55 Clear 30 -1 21 -6 69 69 Calm 30.33 1027 10 16.09344 0 0
7:15 am 07:15 Clear 28 -2 21 -6 74 74 Calm 30.36 1028 10 16.09344 0 0
7:35 am 07:35 Sunny 30 -1 23 -5 75 75 SSW 5 7 30.33 1027 10 16.09344 0 0
7:55 am 07:55 Sunny 30 -1 23 -5 75 75 SW 3 6 30.33 1027 10 16.09344 0 0
8:15 am 08:15 Sunny 32 0 25 -4 75 75 SSW 6 9 30.33 1027 10 16.09344 0 0
8:35 am 08:35 Sunny 34 1 27 -3 75 75 SSW 6 9 30.33 1027 10 16.09344 0 0
8:55 am 08:55 Sunny 36 2 27 -3 70 70 SSW 6 9 30.3 1026 10 16.09344 0 0
9:15 am 09:15 Sunny 39 4 28 -2 65 65 SW 6 9 30.3 1026 10 16.09344 0 0
9:35 am 09:35 Sunny 41 5 28 -2 61 61 SW 7 11 30.27 1025 10 16.09344 0 0
9:55 am 09:55 Sunny 45 7 28 -2 53 53 SW 7 11 30.27 1025 10 16.09344 0 0
10:15 am 10:15 Sunny 46 8 28 -2 50 50 SW 8 13 30.24 1024 10 16.09344 0 0
10:35 am 10:35 Sunny 46 8 27 -3 46 46 SW 9 15 30.24 1024 10 16.09344 0 0
10:55 am 10:55 Sunny 48 9 27 -3 43 43 SSW 10 17 30.24 1024 10 16.09344 0 0
11:15 am 11:15 Sunny 50 10 27 -3 40 40 SW 9 15 30.24 1024 10 16.09344 0 0
11:35 am 11:35 Sunny 52 11 27 -3 38 38 SW 8 13 30.18 1022 10 16.09344 0 0
11:55 am 11:55 Sunny 54 12 27 -3 35 35 SW 8 13 30.18 1022 10 16.09344 0 0
12:15 pm 12:15 Sunny 55 13 27 -3 33 33 SSW 12 19 30.18 1022 10 16.09344 0 0
12:35 pm 12:35 Sunny 55 13 27 -3 33 33 SW 8 13 30.15 1021 10 16.09344 0 0
12:55 pm 12:55 Sunny 57 14 25 -4 29 29 SSW 9 15 30.12 1020 10 16.09344 0 0
1:15 pm 13:15 Sunny 57 14 27 -3 31 31 SSW 8 13 30.09 1019 10 16.09344 0 0
1:35 pm 13:35 Sunny 57 14 27 -3 31 31 SSW 10 17 30.09 1019 10 16.09344 0 0
1:55 pm 13:55 Sunny 57 14 27 -3 31 31 SW 10 17 30.09 1019 10 16.09344 0 0
2:15 pm 14:15 Sunny 59 15 27 -3 29 29 SW 5 7 30.09 1019 10 16.09344 0 0
2:35 pm 14:35 Sunny 59 15 27 -3 29 29 SSW 6 9 30.09 1019 10 16.09344 0 0
2:55 pm 14:55 Sunny 59 15 27 -3 29 29 S 5 7 30.09 1019 10 16.09344 0 0
6:15 pm 18:15 Clear 48 9 30 -1 50 50 SW 3 6 30.15 1021 10 16.09344 0 0
6:35 pm 18:35 Clear 45 7 28 -2 53 53 SSW 6 9 30.18 1022 10 16.09344 0 0
6:55 pm 18:55 Clear 45 7 28 -2 53 53 SSW 6 9 30.18 1022 10 16.09344 0 0
7:15 pm 19:15 Clear 43 6 28 -2 57 57 S 3 6 30.18 1022 10 16.09344 0 0
7:35 pm 19:35 Clear 41 5 28 -2 61 61 SSW 3 6 30.18 1022 10 16.09344 0 0
7:55 pm 19:55 Clear 37 3 27 -3 65 65 S 3 6 30.21 1023 10 16.09344 0 0
8:15 pm 20:15 Clear 39 4 28 -2 65 65 S 5 7 30.18 1022 10 16.09344 0 0
8:35 pm 20:35 Clear 41 5 28 -2 61 61 SSW 7 11 30.18 1022 10 16.09344 0 0
8:55 pm 20:55 Clear 41 5 28 -2 61 61 SSW 6 9 30.18 1022 10 16.09344 0 0
9:15 pm 21:15 Clear 41 5 28 -2 61 61 SSW 7 11 30.18 1022 10 16.09344 0 0
9:35 pm 21:35 Clear 39 4 28 -2 65 65 SSW 7 11 30.18 1022 10 16.09344 0 0
9:55 pm 21:55 Clear 41 5 28 -2 61 61 SSW 7 11 30.18 1022 10 16.09344 0 0
10:15 pm 22:15 Clear 41 5 28 -2 61 61 SSW 6 9 30.18 1022 10 16.09344 0 0
10:35 pm 22:35 Clear 41 5 28 -2 61 61 SSW 8 13 30.18 1022 10 16.09344 0 0
10:55 pm 22:55 Clear 41 5 28 -2 61 61 SSW 7 11 30.18 1022 10 16.09344 0 0
11:15 pm 23:15 Clear 39 4 28 -2 65 65 SSW 5 7 30.18 1022 10 16.09344 0 0
11:35 pm 23:35 Clear 39 4 28 -2 65 65 SSW 6 9 30.18 1022 10 16.09344 0 0
11:55 pm 23:55 Clear 37 3 28 -2 70 70 SSW 6 9 30.21 1023 10 16.09344 0 0

Powered by AerisWeather